Weather History for Owatonna, MN

Change the Weather History Date:

Monday, January 21, 2013

  Actual Average Record
Temperature  
Mean Temperature -3 °F -  
Max Temperature 1 °F 26 °F 50 °F (1964)
Min Temperature -7 °F 7 °F -30 °F (1970)
Degree Days  
Heating Degree Days 68    
Moisture  
Dew Point -16 °F    
Average Humidity 54    
Maximum Humidity 66    
Minimum Humidity 46    
Precipitation  
Precipitation 0.00 in - - ()
Sea Level Pressure  
Sea Level Pressure 30.26 in    
Wind  
Wind Speed 16 mph (WNW)    
Max Wind Speed 22 mph    
Max Gust Speed 28 mph    
Visibility 9 miles    
Events      
Averages and records for this station are not official NWS values.
T = Trace of Precipitation, MM = Missing Value Source: NWS Daily Summary

Daily Weather History Graph

Daily Weather History Graph

Search for Another Location

Airport:

Trip Planner

Search our weather history database for the weather conditions in past years. The results will help you decide how hot, cold, wet, or windy it might be!

Date:

Astronomy

Jan. 21, 2013 Rise Set
Actual Time 7:40 AM CST 5:08 PM CST
Civil Twilight 7:09 AM CST 5:40 PM CST
Nautical Twilight 6:33 AM CST 6:15 PM CST
Astronomical Twilight 5:59 AM CST 6:49 PM CST
Moon 12:48 PM CST (1/21) 3:10 AM CST (1/21)
Length of Visible Light 10h 30m
Length of Day
9h 27m
Waxing Gibbous, 75% of the Moon is Illuminated
Jan 21
Waxing Gibbous
Jan 26
Full
Feb 3
Last Quarter
Feb 10
New
Feb 17
First Quarter

Hourly Weather History & Observations

Time (CST) Temp. Windchill Dew Point Humidity Pressure Visibility Wind Dir Wind Speed Gust Speed Precip Events Conditions
12:13 AM 1.4 °F -17.6 °F -9.4 °F 61% 30.24 in 10.0 mi WNW 15.0 mph 20.7 mph N/A   Clear
12:34 AM 1.4 °F -16.9 °F -11.2 °F 56% 30.23 in 10.0 mi WNW 13.8 mph - N/A   Clear
12:54 AM -0.4 °F -20.5 °F -9.4 °F 66% 30.23 in 5.0 mi WNW 16.1 mph - N/A   Haze
1:14 AM -0.4 °F -20.5 °F -9.4 °F 66% 30.24 in 3.0 mi WNW 16.1 mph - N/A   Haze
1:34 AM -0.4 °F -19.9 °F -11.2 °F 60% 30.24 in 5.0 mi WNW 15.0 mph 21.9 mph N/A   Haze
1:54 AM -0.4 °F -20.5 °F -13.0 °F 55% 30.25 in 10.0 mi WNW 16.1 mph 21.9 mph N/A   Clear
2:13 AM -0.4 °F -19.9 °F -13.0 °F 55% 30.26 in 7.0 mi WNW 15.0 mph - N/A   Clear
2:34 AM -0.4 °F -19.9 °F -13.0 °F 55% 30.26 in 10.0 mi West 15.0 mph 21.9 mph N/A   Clear
3:14 AM -2.2 °F -24.7 °F -14.8 °F 55% 30.26 in 10.0 mi WNW 19.6 mph 25.3 mph N/A   Scattered Clouds
3:34 AM -2.2 °F -22.9 °F -16.6 °F 50% 30.26 in 10.0 mi WNW 16.1 mph - N/A   Clear
3:54 AM -2.2 °F -24.1 °F -16.6 °F 50% 30.25 in 10.0 mi West 18.4 mph - N/A   Clear
4:14 AM -4.0 °F -27.6 °F -16.6 °F 55% 30.26 in 10.0 mi WNW 20.7 mph 26.5 mph N/A   Clear
4:33 AM -5.8 °F -29.4 °F -18.4 °F 55% 30.26 in 10.0 mi WNW 19.6 mph 24.2 mph N/A   Clear
4:54 AM -5.8 °F -29.4 °F -18.4 °F 55% 30.26 in 10.0 mi WNW 19.6 mph 24.2 mph N/A   Clear
5:14 AM -5.8 °F -29.9 °F -18.4 °F 55% 30.26 in 10.0 mi WNW 20.7 mph 27.6 mph N/A   Clear
6:14 AM -7.6 °F -32.3 °F -20.2 °F 54% 30.27 in 10.0 mi WNW 20.7 mph 25.3 mph N/A   Clear
6:34 AM -7.6 °F -32.3 °F -20.2 °F 54% 30.27 in 10.0 mi WNW 20.7 mph 25.3 mph N/A   Clear
6:54 AM -7.6 °F -32.3 °F -20.2 °F 54% 30.27 in 10.0 mi WNW 20.7 mph 26.5 mph N/A   Clear
7:14 AM -7.6 °F -31.7 °F -20.2 °F 54% 30.27 in 10.0 mi WNW 19.6 mph 25.3 mph N/A   Clear
7:34 AM -7.6 °F -29.1 °F -20.2 °F 54% 30.27 in 10.0 mi WNW 15.0 mph - N/A   Clear
7:54 AM -7.6 °F -31.7 °F -20.2 °F 54% 30.28 in 10.0 mi WNW 19.6 mph - N/A   Clear
8:14 AM -7.6 °F -30.5 °F -20.2 °F 54% 30.28 in 10.0 mi WNW 17.3 mph 23.0 mph N/A   Clear
8:34 AM -7.6 °F -27.5 °F -18.4 °F 59% 30.28 in 10.0 mi WNW 12.7 mph 20.7 mph N/A   Clear
8:54 AM -7.6 °F -30.5 °F -18.4 °F 59% 30.29 in 10.0 mi WNW 17.3 mph 21.9 mph N/A   Clear
9:14 AM -5.8 °F -28.8 °F -18.4 °F 55% 30.29 in 10.0 mi WNW 18.4 mph 23.0 mph N/A   Clear
9:34 AM -5.8 °F -29.4 °F -18.4 °F 55% 30.30 in 10.0 mi WNW 19.6 mph 25.3 mph N/A   Clear
9:54 AM -5.8 °F -30.5 °F -18.4 °F 55% 30.30 in 10.0 mi WNW 21.9 mph - N/A   Clear
10:14 AM -4.0 °F -27.0 °F -18.4 °F 50% 30.30 in 10.0 mi NW 19.6 mph 26.5 mph N/A   Clear
10:34 AM -2.2 °F -25.2 °F -16.6 °F 50% 30.30 in 10.0 mi WNW 20.7 mph 26.5 mph N/A   Clear
10:54 AM -2.2 °F -25.2 °F -18.4 °F 46% 30.31 in 10.0 mi WNW 20.7 mph 27.6 mph N/A   Clear
11:14 AM -2.2 °F -23.5 °F -16.6 °F 50% 30.30 in 7.0 mi WNW 17.3 mph 25.3 mph N/A   Clear
11:34 AM -2.2 °F -24.1 °F -16.6 °F 50% 30.29 in 7.0 mi WNW 18.4 mph 23.0 mph N/A   Clear
11:54 AM -2.2 °F -23.5 °F -16.6 °F 50% 30.28 in 7.0 mi WNW 17.3 mph 26.5 mph N/A   Clear
12:14 PM -0.4 °F -22.8 °F -16.6 °F 46% 30.27 in 7.0 mi WNW 20.7 mph - N/A   Clear
12:34 PM -0.4 °F -21.2 °F -16.6 °F 46% 30.26 in 7.0 mi WNW 17.3 mph 23.0 mph N/A   Clear
12:54 PM -0.4 °F -22.8 °F -16.6 °F 46% 30.26 in 7.0 mi West 20.7 mph 25.3 mph N/A   Clear
1:14 PM -0.4 °F -22.8 °F -16.6 °F 46% 30.25 in 7.0 mi West 20.7 mph - N/A   Clear
1:34 PM -0.4 °F -23.3 °F -16.6 °F 46% 30.25 in 7.0 mi WNW 21.9 mph 25.3 mph N/A   Clear
1:54 PM -0.4 °F -21.2 °F -16.6 °F 46% 30.24 in 7.0 mi West 17.3 mph - N/A   Clear
2:14 PM 1.4 °F -18.8 °F -14.8 °F 47% 30.24 in 7.0 mi West 17.3 mph 24.2 mph N/A   Clear
2:34 PM 1.4 °F -20.5 °F -14.8 °F 47% 30.24 in 10.0 mi West 20.7 mph 24.2 mph N/A   Clear
2:54 PM 1.4 °F -19.4 °F -14.8 °F 47% 30.24 in 10.0 mi WNW 18.4 mph 23.0 mph N/A   Clear
3:14 PM -0.4 °F -22.3 °F -14.8 °F 51% 30.24 in 10.0 mi West 19.6 mph - N/A   Clear
3:34 PM 1.4 °F -19.4 °F -14.8 °F 47% 30.24 in 10.0 mi West 18.4 mph - N/A   Clear
3:54 PM -0.4 °F -22.3 °F -14.8 °F 51% 30.24 in 7.0 mi West 19.6 mph - N/A   Clear
4:14 PM -0.4 °F -21.2 °F -14.8 °F 51% 30.24 in 10.0 mi WNW 17.3 mph 24.2 mph N/A   Clear
4:54 PM -0.4 °F -20.5 °F -14.8 °F 51% 30.24 in 10.0 mi West 16.1 mph - N/A   Clear
5:14 PM -0.4 °F -18.4 °F -14.8 °F 51% 30.24 in 10.0 mi WNW 12.7 mph 16.1 mph N/A   Clear
5:34 PM -0.4 °F -18.4 °F -14.8 °F 51% 30.24 in 10.0 mi WNW 12.7 mph - N/A   Clear
5:54 PM -0.4 °F -19.9 °F -14.8 °F 51% 30.25 in 10.0 mi West 15.0 mph - N/A   Clear
6:14 PM -0.4 °F -19.9 °F -14.8 °F 51% 30.25 in 10.0 mi WNW 15.0 mph 18.4 mph N/A   Clear
6:34 PM -2.2 °F -20.7 °F -14.8 °F 55% 30.26 in 10.0 mi WNW 12.7 mph - N/A   Clear
6:54 PM -2.2 °F -19.9 °F -14.8 °F 55% 30.26 in 10.0 mi WNW 11.5 mph - N/A   Clear
7:14 PM -2.2 °F -18.9 °F -14.8 °F 55% 30.26 in 10.0 mi WNW 10.4 mph - N/A   Clear
7:34 PM -2.2 °F -18.0 °F -14.8 °F 55% 30.26 in 10.0 mi WNW 9.2 mph - N/A   Clear
7:54 PM -2.2 °F -18.0 °F -14.8 °F 55% 30.26 in 10.0 mi West 9.2 mph - N/A   Clear
8:14 PM -2.2 °F -16.8 °F -13.0 °F 60% 30.26 in 10.0 mi West 8.1 mph - N/A   Clear
8:34 PM -2.2 °F -15.6 °F -13.0 °F 60% 30.26 in 10.0 mi West 6.9 mph - N/A   Clear
8:54 PM -2.2 °F -14.2 °F -13.0 °F 60% 30.26 in 10.0 mi West 5.8 mph - N/A   Clear
9:14 PM -4.0 °F -14.6 °F -14.8 °F 60% 30.26 in 10.0 mi West 4.6 mph - N/A   Clear
9:34 PM -4.0 °F -14.6 °F -14.8 °F 60% 30.26 in 10.0 mi West 4.6 mph - N/A   Clear
9:54 PM -4.0 °F -14.6 °F -14.8 °F 60% 30.26 in 10.0 mi West 4.6 mph - N/A   Clear
10:14 PM -5.8 °F -14.5 °F -14.8 °F 65% 30.25 in 10.0 mi West 3.5 mph - N/A   Clear
10:34 PM -5.8 °F - -14.8 °F 65% 30.25 in 10.0 mi Calm Calm - N/A   Clear
10:54 PM -4.0 °F -12.4 °F -14.8 °F 60% 30.26 in 10.0 mi WSW 3.5 mph - N/A   Clear
11:14 PM -5.8 °F -16.7 °F -14.8 °F 65% 30.26 in 10.0 mi West 4.6 mph - N/A   Clear
11:34 PM -4.0 °F -14.6 °F -14.8 °F 60% 30.26 in 10.0 mi WSW 4.6 mph - N/A   Clear
11:54 PM -4.0 °F -16.3 °F -13.0 °F 65% 30.25 in 10.0 mi WSW 5.8 mph - N/A   Clear